Regional Weather Roundup
Issued by NWS

Home | Current Version | Previous Version | Text Only | Print | Product List | Glossary Off
Versions: 1 2 3 4 5 6 7 8 9 10 11 12 13 14 15 16 17 18 19 20 21 22 23 24 25 26 27 28 29 30 31 32 33 34 35 36 37 38 39 40 41 42 43 44 45 46 47 48 49 50

000
ASUS43 KDTX 251401
RWRMI
MICHIGAN HOURLY REGIONAL WEATHER ROUNDUP
NATIONAL WEATHER SERVICE DETROIT/PONTIAC MI
1000 AM EDT MON SEP 25 2017

NOTE: "FAIR" INDICATES FEW OR NO CLOUDS BELOW 12,000 FEET WITH NO
SIGNIFICANT WEATHER AND/OR OBSTRUCTION TO VISIBILITY.

MIZ047>049-052>055-059>063-066>070-074>076-081>083-251500-
SOUTHEAST LOWER MICHIGAN

CITY           SKY/WX    TMP DP  RH WIND       PRES   REMARKS
ADRIAN         MOSUNNY   73  67  81 CALM      30.09R
ALMA           SUNNY     73  64  72 S8        30.08S
ANN ARBOR      MOSUNNY   78  69  73 CALM      30.07S
BAD AXE        MOSUNNY   76  65  69 CALM      30.10S
CARO           MOSUNNY   76  65  68 CALM      30.08S
DETROIT CITY   MOSUNNY   77  69  76 CALM      30.07S
DETROIT        PTSUNNY   78  70  76 MISG      30.08S
FLINT          SUNNY     76  67  73 S3        30.08S
GROSSE ILE     MOSUNNY   76  70  81 CALM      30.06S
HILLSDALE      CLOUDY    75  64  69 CALM      30.09R
HOWELL         MOSUNNY   74  67  78 S3        30.09R

CITY           SKY/WX    TMP DP  RH WIND       PRES   REMARKS
JACKSON        PTSUNNY   74  66  76 CALM      30.08S
LAMBERTVILLE   MOSUNNY   77  70  79 CALM      30.07S
LANSING        CLOUDY    75  64  68 S3        30.08S
LAPEER         FAIR      76  66  71 CALM      30.08S
MASON          MOSUNNY   74  68  81 CALM      30.08S
MONROE         MOSUNNY   76  70  82 CALM      30.07R
PONTIAC        PTSUNNY   76  68  76 SE3       30.08S
PORT HOPE        N/A     72  67  84 E5        30.08R
PORT HURON     SUNNY     73  72  94 CALM      30.09S
TRI CITIES     SUNNY     76  67  73 SE3       30.08S
MIDLAND        FAIR      73  64  73 CALM      30.07S
TROY           MOSUNNY   76  68  77 CALM      30.09F
SAGINAW HB     SUNNY     72  64  78 CALM      30.07S
$$
MIZ043>046-050>051-056>058-064>065-071>073-077>080-251500-
SOUTHWEST LOWER MICHIGAN

CITY           SKY/WX    TMP DP  RH WIND       PRES   REMARKS
BATTLE CREEK   SUNNY     76  64  66 CALM      30.08S
BENTON HARBOR  SUNNY     74  59  59 S6        30.05S
BIG RAPIDS     SUNNY     67  61  79 CALM      30.07S
COLDWATER      SUNNY     74  68  81 CALM      30.08S
FREMONT        FAIR      73  62  69 S3        30.05S
HOLLAND        SUNNY     75  60  59 S6        30.06R
GRAND RAPIDS   MOSUNNY   78  62  57 S5        30.06S
IONIA          FAIR      77  60  55 CALM      30.06S
KALAMAZOO      SUNNY     73  64  73 S3        30.08S HAZE
LUDINGTON      MOSUNNY   71  62  71 SE3       30.03S
MARSHALL       SUNNY     71  68  90 CALM      30.08S
MOUNT PLEASANT SUNNY     73  62  68 CALM      30.06S
MUSKEGON       MOSUNNY   77  61  57 S5        30.05S
SOUTH HAVEN    SUNNY     74  61  61 S3        30.06R
$$
MIZ016>042-251500-
NORTHERN LOWER MICHIGAN

CITY           SKY/WX    TMP DP  RH WIND       PRES   REMARKS
ALPENA         SUNNY     76  65  68 SW6       30.07R
BEAVER ISLAND  MOSUNNY   77  61  57 SW9       30.02R
BELLAIRE       MOSUNNY   76  62  61 CALM      30.04S
CADILLAC       MOSUNNY   74  60  62 CALM      30.07S
CHARLEVOIX     MOSUNNY   72  62  70 S6        30.06R
FRANKFORT      MOSUNNY   78  62  57 E3        30.03R
GAYLORD        SUNNY     75  60  59 S8        30.08S
GRAYLING       MOSUNNY   71  60  69 CALM      30.08S
HARBOR SPRINGS PTSUNNY   74  60  61 S6        30.03S
HOUGHTON LAKE  PTSUNNY   74  63  68 CALM      30.09S
MANISTEE       MOSUNNY   66  63  90 E5        30.04R
OSCODA         SUNNY     75  66  73 SW5       30.08R
PELLSTON       MOSUNNY   72  64  76 E3        30.04R
ROGERS CITY    SUNNY     77  63  60 SW7       30.05S
TRAVERSE CITY  PTSUNNY   75  62  64 SE3       30.02S
$$
MIZ007>008-015-251500-
EASTERN UPPER MICHIGAN

CITY           SKY/WX    TMP DP  RH WIND       PRES   REMARKS
KINROSS        SUNNY     77  64  64 SW3       30.03R
MACKINAC ISLAN MOSUNNY   73  60  63 S9        30.03R
NEWBERRY       SUNNY     72  65  81 S12G18    30.01R
S. S. MARIE    SUNNY     71  65  81 E5        30.02R
MUNISING         N/A     72  65  78 S9        29.96F
$$
MIZ004>006-011>014-085-251500-
CENTRAL UPPER MICHIGAN

CITY           SKY/WX    TMP DP  RH WIND       PRES   REMARKS
MANISTIQUE       N/A     69  63  81 S8        30.00S
MENOMINEE      MOSUNNY   70  65  84 CALM      30.00S
SAWYER-GWINN   SUNNY     68  63  83 S8        29.99R
$$
MIZ001>003-009>011-084-251500-
WESTERN UPPER MICHIGAN

CITY           SKY/WX    TMP DP  RH WIND       PRES   REMARKS
IRON MOUNTAIN  SUNNY     70  62  76 CALM      29.99R
HOUGHTON       CLOUDY    69  63  81 W16       29.95R
COPPER HARBOR    N/A     72  65  78 VRB5      29.93R
IRONWOOD       CLOUDY    66  64  93 NW8G17    30.00R
$$

ABBREVIATIONS USED IN REMARKS
   TC - TEMPERATURE IN CELSIUS
  WCI - WIND CHILL INDEX
   HX - HEAT INDEX
  VSB - VISIBILITY




USA.gov is the U.S. government's official web portal to all federal, state and local government web resources and services.